Zurück zum Katalog

STARLINK-33869

AktivKommunikationVLEO
NORAD 63790·PAYLOAD·🇺🇸 United States

Gestartet May 2, 2025 von Cape Canaveral Space Force Station

Loading…

Nächste Überflüge (nächste 24 Stunden)

TLE

AktuellSource: CelesTrak SupGP

Epoche: Sep 14, 2026, 21:30 UTC

1 63790C 25091R   26257.89631944  .00052398  00000+0  18980-2 0  2579
2 63790  43.0032  63.7326 0001358 280.6785  13.5221 15.27549864    15

Verfolge STARLINK-33869 in Echtzeit mit AllMySat

Download on the App Store